FW3914 Weather Reports


Display with metric or nautical units.
time (UTC)temp
F
wind
direction
speed
MPH
gust
MPH
rain 1hr
in
rain 24hr
in
rain mn
in
humidity
%
barometer
mb
20260507191409 74 1 4.0 7.0 0.00 0.00 0.00 50 1016.6
20260507190906 73 333 3.0 9.0 0.00 0.00 0.00 55 1017.0
20260507190403 73 5 5.0 9.0 0.00 0.00 0.00 50 1016.8
20260507185902 74 335 3.0 7.0 0.00 0.00 0.00 52 1016.9
20260507185359 74 341 2.0 8.0 0.00 0.00 0.00 51 1016.9
20260507184856 73 33 3.0 11.0 0.00 0.00 0.00 52 1016.9
20260507184354 72 336 1.0 9.0 0.00 0.00 0.00 53 1017.1
20260507183850 73 4 2.0 7.0 0.00 0.00 0.00 52 1017.0
20260507183347 73 342 2.0 8.0 0.00 0.00 0.00 54 1017.1
20260507182845 73 8 2.0 10.0 0.00 0.00 0.00 53 1017.4
20260507182341 71 346 2.0 7.0 0.00 0.00 0.00 54 1017.2
20260507181837 72 349 2.0 11.0 0.00 0.00 0.00 54 1017.5
20260507181333 71 41 4.0 8.0 0.00 0.00 0.00 55 1017.7
20260507180830 71 7 3.0 10.0 0.00 0.00 0.00 54 1017.8
20260507180327 72 218 3.0 7.0 0.00 0.00 0.00 55 1017.7
20260507175822 71 240 3.0 5.0 0.00 0.00 0.00 56 1017.9
20260507175320 70 258 1.0 10.0 0.00 0.00 0.00 58 1017.7
20260507174817 71 341 4.0 6.0 0.00 0.00 0.00 56 1017.8
20260507174315 70 349 2.0 7.0 0.00 0.00 0.00 56 1018.0
20260507173812 70 356 1.0 5.0 0.00 0.00 0.00 56 1017.9
20260507173309 70 53 8.0 10.0 0.00 0.00 0.00 55 1018.2
20260507172805 70 358 4.0 5.0 0.00 0.00 0.00 57 1018.4
20260507172306 69 117 0.0 6.0 0.00 0.00 0.00 57 1018.8
20260507171758 69 81 3.0 6.0 0.00 0.00 0.00 56 1018.6
20260507171255 69 289 3.0 5.0 0.00 0.00 0.00 59 1018.8
20260507170752 69 31 1.0 7.0 0.00 0.00 0.00 57 1019.0
20260507170248 70 310 1.0 2.0 0.00 0.00 0.00 57 1019.1
20260507165744 69 289 3.0 4.0 0.00 0.00 0.00 58 1019.1
20260507165240 68 46 3.0 6.0 0.00 0.00 0.00 60 1019.3
20260507164737 67 46 4.0 6.0 0.00 0.00 0.00 61 1019.3
20260507164234 68 35 3.0 5.0 0.00 0.00 0.00 60 1019.2
20260507163731 67 348 1.0 7.0 0.00 0.00 0.00 61 1019.6
20260507163229 67 333 1.0 7.0 0.00 0.00 0.00 63 1019.5
20260507162724 67 250 3.0 4.0 0.00 0.00 0.00 64 1019.4
20260507162221 67 0 3.0 4.0 0.00 0.00 0.00 61 1019.3
20260507161717 66 45 2.0 6.0 0.00 0.00 0.00 60 1019.6
20260507161214 68 6 0.0 5.0 0.00 0.00 0.00 61 1019.3
20260507160710 67 2 3.0 7.0 0.00 0.00 0.00 60 1019.4
20260507160207 69 62 3.0 6.0 0.00 0.00 0.00 58 1019.3
20260507155703 68 326 2.0 5.0 0.00 0.00 0.00 59 1019.6
20260507155159 68 0 1.0 5.0 0.00 0.00 0.00 60 1019.4
20260507154655 67 206 2.0 5.0 0.00 0.00 0.00 63 1019.4
20260507154153 66 23 3.0 4.0 0.00 0.00 0.00 63 1019.7
20260507153649 66 38 0.0 6.0 0.00 0.00 0.00 63 1019.6
20260507153146 66 297 3.0 7.0 0.00 0.00 0.00 66 1019.6
20260507152642 66 18 3.0 5.0 0.00 0.00 0.00 64 1019.7
20260507152138 65 44 2.0 6.0 0.00 0.00 0.00 66 1019.8
20260507151634 65 304 1.0 7.0 0.00 0.00 0.00 68 1019.8
20260507151132 65 32 0.0 6.0 0.00 0.00 0.00 67 1019.8
20260507150629 64 56 1.0 3.0 0.00 0.00 0.00 67 1019.8
20260507150125 64 17 4.0 5.0 0.00 0.00 0.00 67 1019.9
20260507145620 65 29 2.0 5.0 0.00 0.00 0.00 66 1019.9
20260507145118 66 31 0.0 4.0 0.00 0.00 0.00 66 1020.0
20260507144614 64 239 2.0 3.0 0.00 0.00 0.00 70 1020.0
20260507144113 63 14 3.0 6.0 0.00 0.00 0.00 70 1020.0
20260507143608 63 252 1.0 3.0 0.00 0.00 0.00 71 1020.2
20260507143106 62 329 0.0 4.0 0.00 0.00 0.00 71 1019.9
20260507142601 62 10 2.0 4.0 0.00 0.00 0.00 71 1020.0
20260507142058 63 25 2.0 6.0 0.00 0.00 0.00 70 1019.9
20260507141554 63 288 2.0 3.0 0.00 0.00 0.00 70 1020.2
20260507141051 63 40 2.0 2.0 0.00 0.00 0.00 72 1020.3
20260507140548 62 341 1.0 3.0 0.00 0.00 0.00 73 1020.3
20260507140046 62 263 1.0 3.0 0.00 0.00 0.00 74 1020.4
20260507135542 61 240 0.0 4.0 0.00 0.00 0.00 74 1020.5
20260507135040 61 260 1.0 3.0 0.00 0.00 0.00 76 1020.3
20260507134536 60 168 0.0 2.0 0.00 0.00 0.00 76 1020.5
20260507134032 60 3 0.0 3.0 0.00 0.00 0.00 77 1020.5
20260507133528 60 317 0.0 2.0 0.00 0.00 0.00 76 1020.3
20260507133026 60 312 2.0 3.0 0.00 0.00 0.00 77 1020.5
20260507132522 59 207 0.0 3.0 0.00 0.00 0.00 80 1020.4
20260507132019 59 118 1.0 3.0 0.00 0.00 0.00 81 1020.7
20260507131516 59 311 1.0 2.0 0.00 0.00 0.00 82 1020.3
20260507131013 58 126 2.0 4.0 0.00 0.00 0.00 83 1020.3
20260507130510 58 223 1.0 2.0 0.00 0.00 0.00 85 1020.4
20260507130009 58 235 1.0 3.0 0.00 0.00 0.00 85 1020.3
20260507125506 57 358 0.0 2.0 0.00 0.00 0.00 89 1020.3
20260507125003 55 310 0.0 2.0 0.00 0.00 0.00 92 1020.0
20260507124500 54 190 0.0 2.0 0.00 0.00 0.00 93 1020.1
20260507123958 54 310 0.0 2.0 0.00 0.00 0.00 93 1020.2
20260507123455 53 274 0.0 2.0 0.00 0.00 0.00 94 1020.2
20260507122951 53 355 0.0 2.0 0.00 0.00 0.00 95 1020.2
20260507122447 52 278 0.0 2.0 0.00 0.00 0.00 96 1020.1
20260507121943 52 209 0.0 2.0 0.00 0.00 0.00 96 1020.0
20260507121438 52 173 0.0 3.0 0.00 0.00 0.00 96 1020.0
20260507120935 51 223 0.0 1.0 0.00 0.00 0.00 96 1019.9
20260507120431 51 224 0.0 2.0 0.00 0.00 0.00 97 1019.8
20260507115928 51 168 0.0 2.0 0.00 0.00 0.00 97 1019.8
20260507115424 51 49 0.0 2.0 0.00 0.00 0.00 97 1019.7
20260507114920 51 219 0.0 2.0 0.00 0.00 0.00 97 1019.7
20260507114417 51 255 0.0 2.0 0.00 0.00 0.00 97 1019.6
20260507113914 51 204 1.0 1.0 0.00 0.00 0.00 97 1019.4
20260507113411 51 218 0.0 1.0 0.00 0.00 0.00 97 1019.5
20260507112908 51 238 1.0 3.0 0.00 0.00 0.00 97 1019.2
20260507112406 51 202 0.0 4.0 0.00 0.00 0.00 97 1019.2
20260507111904 51 269 0.0 2.0 0.00 0.00 0.00 97 1019.5
20260507111400 51 238 1.0 3.0 0.00 0.00 0.00 97 1019.1
20260507110856 51 193 0.0 2.0 0.00 0.00 0.00 97 1019.0
20260507110352 51 212 0.0 2.0 0.00 0.00 0.00 97 1018.8
20260507105849 51 172 0.0 2.0 0.00 0.00 0.00 97 1018.8
20260507105346 51 216 2.0 2.0 0.00 0.00 0.00 97 1018.8
20260507104843 51 210 0.0 2.0 0.00 0.00 0.00 97 1018.8
20260507104339 51 209 0.0 1.0 0.00 0.00 0.00 97 1018.7
20260507103835 51 233 0.0 2.0 0.00 0.00 0.00 97 1018.5
20260507103332 51 186 0.0 2.0 0.00 0.00 0.00 97 1018.3
20260507102828 51 192 1.0 2.0 0.00 0.00 0.00 97 1018.4
20260507102325 51 218 0.0 1.0 0.00 0.00 0.00 96 1018.4
20260507101821 51 211 0.0 2.0 0.00 0.00 0.00 96 1018.4
20260507101316 51 246 0.0 1.0 0.00 0.00 0.00 96 1018.0
20260507100813 51 335 0.0 1.0 0.00 0.00 0.00 96 1018.1
20260507100311 52 222 0.0 2.0 0.00 0.00 0.00 96 1018.3
20260507095809 52 204 0.0 2.0 0.00 0.00 0.00 96 1018.0
20260507095306 52 153 0.0 3.0 0.00 0.00 0.00 95 1018.1
20260507094803 52 255 0.0 3.0 0.00 0.00 0.00 96 1018.0
20260507094259 52 66 1.0 2.0 0.00 0.00 0.00 95 1017.9
20260507093756 52 174 0.0 2.0 0.00 0.00 0.00 95 1018.1
20260507093255 52 6 0.0 3.0 0.00 0.00 0.00 95 1017.8
20260507092752 52 342 0.0 2.0 0.00 0.00 0.00 95 1017.9
20260507092248 52 237 1.0 2.0 0.00 0.00 0.00 95 1017.9
20260507091745 52 0 0.0 2.0 0.00 0.00 0.00 95 1017.9
20260507091242 52 218 1.0 2.0 0.00 0.00 0.00 95 1017.9
20260507090737 52 326 0.0 2.0 0.00 0.00 0.00 95 1017.7
20260507090234 52 175 0.0 2.0 0.00 0.00 0.00 95 1017.8
20260507085731 53 19 0.0 2.0 0.00 0.00 0.00 94 1017.9
20260507085228 53 185 0.0 1.0 0.00 0.00 0.00 94 1017.7
20260507084725 53 24 0.0 2.0 0.00 0.00 0.00 94 1017.6
20260507084221 53 161 1.0 2.0 0.00 0.00 0.00 94 1017.7
20260507083719 53 233 0.0 2.0 0.00 0.00 0.00 94 1017.7
20260507083215 53 191 1.0 2.0 0.00 0.00 0.00 93 1017.6
20260507082711 54 207 1.0 2.0 0.00 0.00 0.00 93 1017.8
20260507082207 54 194 0.0 2.0 0.00 0.00 0.00 92 1017.8
20260507081704 54 94 1.0 2.0 0.00 0.00 0.00 92 1017.7
20260507081200 55 279 0.0 3.0 0.00 0.00 0.00 91 1017.6
20260507080657 55 307 3.0 4.0 0.00 0.00 0.00 90 1017.5
20260507080153 55 275 2.0 3.0 0.00 0.00 0.00 89 1017.5
20260507075648 55 304 1.0 2.0 0.00 0.00 0.00 88 1017.4
20260507075145 55 287 0.0 4.0 0.00 0.00 0.00 87 1017.2
20260507074641 56 26 1.0 3.0 0.00 0.00 0.00 86 1017.5
20260507074140 56 269 0.0 6.0 0.00 0.00 0.00 86 1017.2
20260507073636 56 291 1.0 7.0 0.00 0.00 0.00 87 1017.4
20260507073132 56 30 4.0 5.0 0.00 0.00 0.00 87 1017.4
20260507072630 56 358 1.0 4.0 0.00 0.00 0.00 87 1017.3
20260507072127 56 64 2.0 7.0 0.00 0.00 0.00 87 1017.4
20260507071625 56 28 0.0 3.0 0.00 0.00 0.00 87 1017.4
20260507071121 56 299 1.0 5.0 0.00 0.00 0.00 86 1017.4
20260507070618 56 29 3.0 6.0 0.00 0.00 0.00 86 1017.5
20260507070115 56 20 2.0 9.0 0.00 0.00 0.00 86 1017.5
20260507065611 56 292 0.0 4.0 0.00 0.00 0.00 86 1017.3
20260507065108 56 57 2.0 8.0 0.00 0.00 0.00 86 1017.3
20260507064606 56 348 0.0 6.0 0.00 0.00 0.00 86 1017.3
20260507064105 56 217 0.0 2.0 0.00 0.00 0.00 86 1017.1
20260507063601 56 9 2.0 7.0 0.00 0.00 0.00 86 1017.3
20260507063059 56 33 4.0 5.0 0.00 0.00 0.00 86 1017.0
20260507062555 56 350 3.0 6.0 0.00 0.00 0.00 86 1017.3
20260507062053 56 285 0.0 4.0 0.00 0.00 0.00 86 1017.1
20260507061550 57 208 2.0 4.0 0.00 0.00 0.00 85 1017.0
20260507061048 57 2 3.0 7.0 0.00 0.00 0.00 85 1017.1
20260507060546 57 77 3.0 6.0 0.00 0.00 0.00 85 1017.0
20260507060042 57 0 3.0 6.0 0.00 0.00 0.00 85 1016.9
20260507055542 57 51 2.0 6.0 0.00 0.00 0.00 84 1017.0
20260507055039 57 30 4.0 8.0 0.00 0.00 0.00 84 1017.1
20260507054535 57 95 3.0 7.0 0.00 0.00 0.00 84 1017.0
20260507054032 57 4 3.0 10.0 0.00 0.00 0.00 84 1017.0
20260507053530 57 47 2.0 6.0 0.00 0.00 0.00 84 1017.1
20260507053029 57 246 1.0 6.0 0.00 0.00 0.00 83 1017.0
20260507052526 57 0 1.0 10.0 0.00 0.00 0.00 83 1017.1
20260507052022 58 61 3.0 9.0 0.00 0.00 0.00 83 1017.1
20260507051520 58 359 2.0 5.0 0.00 0.00 0.00 84 1017.1
20260507051017 58 53 3.0 9.0 0.00 0.00 0.00 85 1017.1
20260507050513 58 71 3.0 6.0 0.00 0.00 0.00 85 1017.2
20260507050010 58 14 3.0 5.0 0.00 0.01 0.01 85 1017.1
20260507045507 58 58 3.0 6.0 0.00 0.01 0.01 85 1017.1
20260507045004 58 36 2.0 6.0 0.00 0.01 0.01 84 1017.3
20260507044501 58 43 5.0 9.0 0.00 0.01 0.01 83 1017.0
20260507043957 58 324 2.0 6.0 0.00 0.01 0.01 83 1017.2
20260507043453 58 58 1.0 6.0 0.00 0.01 0.01 83 1017.2
20260507042950 59 38 3.0 7.0 0.00 0.01 0.01 83 1017.4
20260507042447 59 23 2.0 4.0 0.00 0.01 0.01 83 1017.4
20260507041942 59 4 4.0 8.0 0.00 0.01 0.01 83 1017.4
20260507041439 59 14 5.0 8.0 0.00 0.01 0.01 83 1017.6
20260507040936 59 0 2.0 7.0 0.00 0.01 0.01 82 1017.4
20260507040432 59 49 2.0 8.0 0.00 0.01 0.01 83 1017.5
20260507035928 59 248 2.0 5.0 0.00 0.01 0.01 83 1017.8
20260507035425 59 338 3.0 5.0 0.00 0.01 0.01 83 1017.8
20260507034921 59 358 2.0 6.0 0.00 0.01 0.01 83 1017.6
20260507034418 59 54 3.0 6.0 0.00 0.01 0.01 83 1017.6
20260507033916 59 302 1.0 7.0 0.00 0.01 0.01 83 1017.8
20260507033414 59 238 2.0 5.0 0.00 0.01 0.01 83 1017.5
20260507032911 59 33 2.0 6.0 0.00 0.01 0.01 83 1017.2
20260507032408 59 22 3.0 7.0 0.00 0.01 0.01 83 1017.6
20260507031904 59 359 3.0 7.0 0.00 0.01 0.01 83 1017.2
20260507031401 59 300 2.0 7.0 0.00 0.01 0.01 83 1017.5
20260507030857 59 24 3.0 8.0 0.00 0.01 0.01 83 1017.3
20260507030355 59 14 2.0 4.0 0.00 0.01 0.01 84 1017.0
20260507025851 59 3 2.0 6.0 0.00 0.01 0.01 83 1016.9
20260507025349 59 41 1.0 8.0 0.00 0.01 0.01 83 1016.9
20260507024846 59 12 3.0 5.0 0.00 0.01 0.01 83 1016.8
20260507024343 59 310 2.0 6.0 0.00 0.01 0.01 84 1016.8
20260507023839 59 10 1.0 6.0 0.00 0.01 0.01 84 1016.6
20260507023336 59 9 3.0 6.0 0.00 0.01 0.01 84 1016.7
20260507022834 59 355 5.0 9.0 0.00 0.01 0.01 83 1016.6
20260507022330 59 300 1.0 5.0 0.00 0.01 0.01 84 1016.5
20260507021826 59 350 0.0 5.0 0.00 0.01 0.01 83 1016.3
20260507021322 59 15 2.0 4.0 0.00 0.01 0.01 84 1016.0
20260507020820 59 262 3.0 7.0 0.00 0.01 0.01 84 1016.0
20260507020316 59 21 3.0 6.0 0.00 0.01 0.01 84 1016.1
20260507015813 59 342 3.0 8.0 0.00 0.01 0.01 84 1016.1
20260507015311 59 2 4.0 10.0 0.00 0.01 0.01 84 1016.0
20260507014808 59 7 2.0 8.0 0.00 0.01 0.01 84 1015.8
20260507014304 59 7 3.0 7.0 0.00 0.01 0.01 85 1015.7
20260507013800 59 350 2.0 7.0 0.00 0.01 0.01 84 1015.5
20260507013258 59 26 2.0 6.0 0.00 0.01 0.01 85 1015.2
20260507012755 59 344 0.0 5.0 0.00 0.01 0.01 84 1015.2
20260507012250 59 358 3.0 7.0 0.00 0.01 0.01 84 1015.2
20260507011749 59 30 3.0 7.0 0.00 0.01 0.01 84 1014.9
20260507011245 59 359 3.0 10.0 0.00 0.01 0.01 84 1015.0
20260507010744 59 4 1.0 7.0 0.00 0.01 0.01 84 1014.8
20260507010241 60 8 1.0 4.0 0.00 0.01 0.01 85 1014.9
20260507005738 59 340 3.0 7.0 0.00 0.01 0.01 84 1014.8
20260507005234 60 299 2.0 7.0 0.00 0.01 0.01 84 1014.9
20260507004731 60 324 2.0 7.0 0.00 0.01 0.01 84 1014.6
20260507004229 60 27 5.0 7.0 0.00 0.01 0.01 84 1014.8
20260507003725 60 327 2.0 5.0 0.00 0.01 0.01 84 1014.6
20260507003220 60 56 4.0 7.0 0.00 0.01 0.01 84 1014.7
20260507002717 60 323 5.0 6.0 0.00 0.01 0.01 84 1014.6
20260507002213 60 43 2.0 8.0 0.00 0.01 0.01 84 1014.2
20260507001709 60 350 3.0 5.0 0.00 0.01 0.01 84 1014.4
20260507001207 60 334 2.0 10.0 0.00 0.01 0.01 84 1014.3
20260507000703 60 354 4.0 6.0 0.00 0.01 0.01 84 1014.1
20260507000159 60 19 2.0 5.0 0.00 0.01 0.01 84 1014.3
20260506235656 60 331 3.0 7.0 0.00 0.01 0.01 84 1014.2
20260506235151 60 42 5.0 7.0 0.00 0.01 0.01 84 1014.4
20260506234648 60 265 3.0 7.0 0.00 0.01 0.01 84 1014.2
20260506234145 60 4 3.0 8.0 0.00 0.01 0.01 84 1014.2
20260506233643 60 54 4.0 10.0 0.00 0.01 0.01 83 1014.2
20260506233139 60 9 5.0 9.0 0.00 0.01 0.01 83 1014.2
20260506232636 60 9 3.0 7.0 0.00 0.01 0.01 83 1014.1
20260506232131 60 342 3.0 7.0 0.00 0.01 0.01 83 1014.0
20260506231628 61 52 2.0 5.0 0.00 0.01 0.01 82 1013.9
20260506231127 60 43 5.0 7.0 0.00 0.01 0.01 83 1013.7
20260506230624 61 308 3.0 6.0 0.00 0.01 0.01 83 1013.6
20260506230120 60 40 3.0 6.0 0.00 0.01 0.01 84 1013.6
20260506225617 60 284 4.0 9.0 0.00 0.01 0.01 85 1013.7
20260506225113 60 346 4.0 7.0 0.00 0.01 0.01 84 1014.0
20260506224610 60 0 5.0 7.0 0.00 0.01 0.01 82 1014.2
20260506224107 60 267 2.0 8.0 0.00 0.01 0.01 80 1013.9
20260506223603 60 302 1.0 7.0 0.00 0.01 0.01 80 1013.9
20260506223059 60 339 2.0 7.0 0.00 0.01 0.01 81 1014.0
20260506222556 60 22 3.0 5.0 0.00 0.01 0.01 80 1014.0
20260506222052 60 315 4.0 8.0 0.00 0.01 0.01 80 1014.1
20260506221550 60 99 4.0 7.0 0.00 0.01 0.01 80 1013.8
20260506221048 60 24 3.0 8.0 0.00 0.01 0.01 80 1013.7
20260506220544 60 75 3.0 6.0 0.00 0.01 0.01 80 1013.5
20260506220039 60 295 4.0 5.0 0.00 0.01 0.01 80 1013.5
20260506215537 60 9 3.0 6.0 0.00 0.01 0.01 80 1013.8
20260506215032 60 23 2.0 6.0 0.00 0.01 0.01 80 1013.5
20260506214529 60 316 3.0 11.0 0.00 0.01 0.01 80 1013.6
20260506214027 60 19 2.0 7.0 0.00 0.01 0.01 79 1013.4
20260506213525 60 8 3.0 6.0 0.00 0.01 0.01 80 1013.7
20260506213021 60 32 2.0 7.0 0.00 0.01 0.01 79 1013.7
20260506212518 60 18 0.0 6.0 0.00 0.01 0.01 79 1013.6
20260506212013 61 355 3.0 8.0 0.00 0.01 0.01 78 1013.9
20260506211509 61 30 3.0 5.0 0.00 0.01 0.01 78 1013.5
20260506211007 62 250 2.0 6.0 0.00 0.01 0.01 77 1013.6
20260506210503 62 242 2.0 5.0 0.00 0.01 0.01 77 1013.7
20260506210000 61 345 4.0 6.0 0.00 0.01 0.01 77 1013.6
20260506205456 62 27 4.0 7.0 0.00 0.01 0.01 76 1013.8
20260506204952 62 306 2.0 7.0 0.00 0.01 0.01 77 1013.9
20260506204450 62 208 0.0 6.0 0.00 0.01 0.01 76 1013.9
20260506203947 62 22 1.0 6.0 0.00 0.01 0.01 77 1013.8
20260506203444 62 356 1.0 9.0 0.00 0.01 0.01 78 1013.9
20260506202941 62 2 2.0 7.0 0.00 0.01 0.01 77 1013.9
20260506202438 60 0 3.0 8.0 0.00 0.01 0.01 78 1014.4
20260506201934 61 31 3.0 7.0 0.00 0.01 0.01 79 1014.4
20260506201432 61 348 3.0 5.0 0.00 0.01 0.01 78 1014.1
20260506200928 61 303 1.0 4.0 0.00 0.01 0.01 80 1014.4
20260506200425 60 359 0.0 4.0 0.00 0.01 0.01 81 1014.2
20260506195921 59 42 3.0 5.0 0.00 0.01 0.01 81 1014.0
20260506195419 59 63 0.0 9.0 0.00 0.01 0.01 82 1014.1
20260506194915 59 317 3.0 5.0 0.00 0.01 0.01 82 1014.4
20260506194412 58 33 2.0 6.0 0.00 0.01 0.01 83 1014.6
20260506193909 58 311 2.0 5.0 0.00 0.01 0.01 82 1014.7
20260506193406 59 349 3.0 4.0 0.00 0.01 0.01 82 1014.7
20260506192902 59 236 1.0 3.0 0.00 0.01 0.01 82 1014.8
20260506192359 58 273 0.0 4.0 0.00 0.01 0.01 83 1014.7
20260506191857 58 349 0.0 5.0 0.00 0.01 0.01 83 1014.6